"Period start","avg(HW err(1)/warn(2) (#))","avg(Visibility (m))","avg(Weather code (#))","avg(Precip intensity (mm/h))","min(HW err(1)/warn(2) (#))","max(HW err(1)/warn(2) (#))","std(HW err(1)/warn(2) (#))","med(HW err(1)/warn(2) (#))","min(Visibility (m))","max(Visibility (m))","std(Visibility (m))","med(Visibility (m))","min(Weather code (#))","max(Weather code (#))","std(Weather code (#))","med(Weather code (#))","min(Precip intensity (mm/h))","max(Precip intensity (mm/h))","std(Precip intensity (mm/h))","med(Precip intensity (mm/h))"
2017-05-16 00:00:00,1,,,,1,1,0,1,,,,,,,,,,,,
2017-05-16 00:10:00,1,,,,1,1,0,1,,,,,,,,,,,,
2017-05-16 00:20:00,1,,,,1,1,0,1,,,,,,,,,,,,
2017-05-16 00:30:00,1,,,,1,1,0,1,,,,,,,,,,,,
2017-05-16 00:40:00,1,,,,1,1,0,1,,,,,,,,,,,,
2017-05-16 00:50:00,1,,,,1,1,0,1,,,,,,,,,,,,
2017-05-16 01:00:00,1,,,,1,1,0,1,,,,,,,,,,,,
2017-05-16 01:10:00,1,,,,1,1,0,1,,,,,,,,,,,,
2017-05-16 01:20:00,1,9873,,0.00,1,2,0,1,0,17852,7410,11767,,,,,0.00,0.00,0.00,0.00
2017-05-16 01:30:00,1,,,,1,1,0,1,,,,,,,,,,,,
2017-05-16 01:40:00,1,,,,1,1,0,1,,,,,,,,,,,,
2017-05-16 01:50:00,1,30304,,0.00,1,2,0,1,15700,50000,14459,25211,,,,,0.00,0.00,0.00,0.00
2017-05-16 02:00:00,2,11376,0,0.00,1,2,0,2,0,17239,5422,11032,0,0,0,0,0.00,0.00,0.00,0.00
2017-05-16 02:10:00,1,2955,,0.00,1,2,0,1,0,8865,4179,0,,,,,0.00,0.00,0.00,0.00
2017-05-16 02:20:00,2,8214,,0.00,1,2,0,2,0,17681,5849,10439,,,,,0.00,0.00,0.00,0.00
2017-05-16 02:30:00,2,29928,0,0.00,2,2,0,2,14299,46926,8195,29490,0,0,0,0,0.00,0.00,0.00,0.00
2017-05-16 02:40:00,2,26232,0,0.00,1,2,0,2,0,38914,12429,29712,0,0,0,0,0.00,0.00,0.00,0.00
2017-05-16 02:50:00,2,22059,0,0.00,1,2,0,2,0,37101,10594,25202,0,0,0,0,0.00,0.00,0.00,0.00
2017-05-16 03:00:00,2,19777,0,0.00,2,2,0,2,9369,38551,10038,17198,0,0,0,0,0.00,0.00,0.00,0.00
2017-05-16 03:10:00,2,24767,0,0.00,2,2,0,2,16401,38185,8464,21311,0,0,0,0,0.00,0.00,0.00,0.00
2017-05-16 03:20:00,2,25000,0,0.00,2,2,0,2,15477,45605,9247,23096,0,0,0,0,0.00,0.00,0.00,0.00
2017-05-16 03:30:00,2,21957,0,0.00,2,2,0,2,14178,26692,4159,23817,0,0,0,0,0.00,0.00,0.00,0.00
2017-05-16 03:40:00,2,21345,0,0.00,2,2,0,2,10303,32496,6659,19526,0,0,0,0,0.00,0.00,0.00,0.00
2017-05-16 03:50:00,2,21684,22,0.00,2,2,0,2,11851,31719,6928,21358,0,78,34,0,0.00,0.00,0.00,0.00
2017-05-16 04:00:00,2,4668,73,0.76,2,2,0,2,2103,6915,1474,4548,71,78,3,71,0.10,2.30,0.60,0.55
2017-05-16 04:10:00,2,2977,71,1.08,2,2,0,2,2280,5703,949,2692,71,71,0,71,0.60,1.75,0.37,1.00
2017-05-16 04:20:00,2,1370,71,2.79,2,2,0,2,1005,1626,184,1438,71,71,0,71,2.00,4.50,0.65,2.62
2017-05-16 04:30:00,2,2438,71,1.35,2,2,0,2,1297,3235,620,2608,71,71,0,71,0.15,2.55,0.81,1.30
2017-05-16 04:40:00,2,3188,71,0.36,2,2,0,2,2764,3705,265,3214,71,71,0,71,0.05,0.65,0.21,0.35
2017-05-16 04:50:00,2,2906,71,0.23,2,2,0,2,2207,3408,362,2880,71,71,0,71,0.05,0.55,0.16,0.17
2017-05-16 05:00:00,2,3752,72,0.06,2,2,0,2,2676,5680,833,3688,71,77,2,71,0.00,0.30,0.09,0.00
2017-05-16 05:10:00,2,6630,24,0.00,2,2,0,2,4209,9264,1371,6658,10,78,27,10,0.00,0.00,0.00,0.00
2017-05-16 05:20:00,2,9019,10,0.00,2,2,0,2,6713,13628,2020,8510,10,10,0,10,0.00,0.00,0.00,0.00
2017-05-16 05:30:00,2,12024,9,0.00,2,2,0,2,8225,15595,2210,11179,0,10,3,10,0.00,0.00,0.00,0.00
2017-05-16 05:40:00,2,15882,0,0.00,2,2,0,2,9355,26082,5612,14169,0,0,0,0,0.00,0.00,0.00,0.00
2017-05-16 05:50:00,2,16285,0,0.00,2,2,0,2,9523,26172,5214,14801,0,0,0,0,0.00,0.00,0.00,0.00
2017-05-16 06:00:00,2,24116,0,0.00,2,2,0,2,8111,41439,10990,24226,0,0,0,0,0.00,0.00,0.00,0.00
2017-05-16 06:10:00,2,15542,0,0.00,2,2,0,2,8560,27622,6683,13064,0,0,0,0,0.00,0.00,0.00,0.00
2017-05-16 06:20:00,2,18620,0,0.00,2,2,0,2,7938,32377,6323,19738,0,0,0,0,0.00,0.00,0.00,0.00
2017-05-16 06:30:00,2,18531,0,0.00,2,2,0,2,4917,40371,9554,16836,0,0,0,0,0.00,0.00,0.00,0.00
2017-05-16 06:40:00,2,27603,0,0.00,2,2,0,2,10296,49751,11370,27182,0,0,0,0,0.00,0.00,0.00,0.00
2017-05-16 06:50:00,2,22781,0,0.00,2,2,0,2,10456,39841,8799,21731,0,0,0,0,0.00,0.00,0.00,0.00
2017-05-16 07:00:00,2,24422,0,0.00,2,2,0,2,16116,34683,6790,23274,0,0,0,0,0.00,0.00,0.00,0.00
2017-05-16 07:10:00,2,18956,0,0.00,2,2,0,2,11984,23634,3648,19986,0,0,0,0,0.00,0.00,0.00,0.00
2017-05-16 07:20:00,2,32426,0,0.00,2,2,0,2,19349,50000,9285,30463,0,0,0,0,0.00,0.00,0.00,0.00
2017-05-16 07:30:00,2,17716,0,0.00,2,2,0,2,13869,23814,3451,16842,0,0,0,0,0.00,0.00,0.00,0.00
2017-05-16 07:40:00,2,17139,0,0.00,2,2,0,2,13571,25282,3383,16605,0,0,0,0,0.00,0.00,0.00,0.00
2017-05-16 07:50:00,2,17772,0,0.00,2,2,0,2,11937,22991,3993,18203,0,0,0,0,0.00,0.00,0.00,0.00
2017-05-16 08:00:00,2,17159,0,0.00,2,2,0,2,13433,21764,2946,15829,0,0,0,0,0.00,0.00,0.00,0.00
2017-05-16 08:10:00,2,16210,0,0.00,2,2,0,2,12213,22328,3264,16004,0,0,0,0,0.00,0.00,0.00,0.00
2017-05-16 08:20:00,2,26283,0,0.00,2,2,0,2,12765,45403,10894,23388,0,0,0,0,0.00,0.00,0.00,0.00
2017-05-16 08:30:00,2,33734,0,0.00,2,2,0,2,25662,50000,8589,29757,0,0,0,0,0.00,0.00,0.00,0.00
2017-05-16 08:40:00,2,27019,0,0.00,2,2,0,2,19768,41302,5749,25780,0,0,0,0,0.00,0.00,0.00,0.00
2017-05-16 08:50:00,2,32432,0,0.00,2,2,0,2,18019,49778,10325,33042,0,0,0,0,0.00,0.00,0.00,0.00
2017-05-16 09:00:00,2,28270,0,0.00,2,2,0,2,21258,41415,6185,25952,0,0,0,0,0.00,0.00,0.00,0.00
2017-05-16 09:10:00,2,25304,0,0.00,2,2,0,2,17852,34994,6952,22081,0,0,0,0,0.00,0.00,0.00,0.00
2017-05-16 09:20:00,2,21436,0,0.00,2,2,0,2,16039,27489,3433,20812,0,0,0,0,0.00,0.00,0.00,0.00
2017-05-16 09:30:00,2,39363,0,0.00,2,2,0,2,23326,50000,7202,41118,0,0,0,0,0.00,0.00,0.00,0.00
2017-05-16 09:40:00,2,47040,0,0.00,2,2,0,2,36971,50000,4234,49629,0,0,0,0,0.00,0.00,0.00,0.00
2017-05-16 09:50:00,2,48081,0,0.00,2,2,0,2,38994,50000,3879,50000,0,0,0,0,0.00,0.00,0.00,0.00
2017-05-16 10:00:00,2,48952,0,0.00,2,2,0,2,39814,50000,2902,50000,0,0,0,0,0.00,0.00,0.00,0.00
2017-05-16 10:10:00,2,48347,0,0.00,2,2,0,2,42087,50000,3014,50000,0,0,0,0,0.00,0.00,0.00,0.00
2017-05-16 10:20:00,2,49594,0,0.00,2,2,0,2,47599,50000,742,50000,0,0,0,0,0.00,0.00,0.00,0.00
2017-05-16 10:30:00,2,46200,0,0.00,2,2,0,2,35417,50000,4650,48836,0,0,0,0,0.00,0.00,0.00,0.00
2017-05-16 10:40:00,2,49909,0,0.00,2,2,0,2,49090,50000,273,50000,0,0,0,0,0.00,0.00,0.00,0.00
2017-05-16 10:50:00,2,49375,0,0.00,2,2,0,2,45531,50000,1340,50000,0,0,0,0,0.00,0.00,0.00,0.00
2017-05-16 11:00:00,2,49532,0,0.00,2,2,0,2,45319,50000,1404,50000,0,0,0,0,0.00,0.00,0.00,0.00
2017-05-16 11:10:00,2,49840,0,0.00,2,2,0,2,48404,50000,479,50000,0,0,0,0,0.00,0.00,0.00,0.00
2017-05-16 11:20:00,2,49320,0,0.00,2,2,0,2,43205,50000,2038,50000,0,0,0,0,0.00,0.00,0.00,0.00
2017-05-16 11:30:00,2,50000,0,0.00,2,2,0,2,50000,50000,0,50000,0,0,0,0,0.00,0.00,0.00,0.00
2017-05-16 11:40:00,2,49771,0,0.00,2,2,0,2,47713,50000,686,50000,0,0,0,0,0.00,0.00,0.00,0.00
2017-05-16 11:50:00,2,49602,0,0.00,2,2,0,2,46019,50000,1194,50000,0,0,0,0,0.00,0.00,0.00,0.00
2017-05-16 12:00:00,2,50000,0,0.00,2,2,0,2,50000,50000,0,50000,0,0,0,0,0.00,0.00,0.00,0.00
2017-05-16 12:10:00,2,50000,0,0.00,2,2,0,2,50000,50000,0,50000,0,0,0,0,0.00,0.00,0.00,0.00
2017-05-16 12:20:00,2,49954,0,0.00,2,2,0,2,49535,50000,140,50000,0,0,0,0,0.00,0.00,0.00,0.00
2017-05-16 12:30:00,2,50000,0,0.00,2,2,0,2,50000,50000,0,50000,0,0,0,0,0.00,0.00,0.00,0.00
2017-05-16 12:40:00,2,50000,0,0.00,2,2,0,2,50000,50000,0,50000,0,0,0,0,0.00,0.00,0.00,0.00
2017-05-16 12:50:00,2,50000,0,0.00,2,2,0,2,50000,50000,0,50000,0,0,0,0,0.00,0.00,0.00,0.00
2017-05-16 13:00:00,2,50000,0,0.00,2,2,0,2,50000,50000,0,50000,0,0,0,0,0.00,0.00,0.00,0.00
2017-05-16 13:10:00,2,49949,0,0.00,2,2,0,2,49492,50000,152,50000,0,0,0,0,0.00,0.00,0.00,0.00
2017-05-16 13:20:00,2,50000,0,0.00,2,2,0,2,50000,50000,0,50000,0,0,0,0,0.00,0.00,0.00,0.00
2017-05-16 13:30:00,2,50000,0,0.00,2,2,0,2,50000,50000,0,50000,0,0,0,0,0.00,0.00,0.00,0.00
2017-05-16 13:40:00,2,50000,0,0.00,2,2,0,2,50000,50000,0,50000,0,0,0,0,0.00,0.00,0.00,0.00
2017-05-16 13:50:00,2,50000,0,0.00,2,2,0,2,50000,50000,0,50000,0,0,0,0,0.00,0.00,0.00,0.00
2017-05-16 14:00:00,2,50000,0,0.00,2,2,0,2,50000,50000,0,50000,0,0,0,0,0.00,0.00,0.00,0.00
2017-05-16 14:10:00,2,50000,0,0.00,2,2,0,2,50000,50000,0,50000,0,0,0,0,0.00,0.00,0.00,0.00
2017-05-16 14:20:00,2,50000,0,0.00,2,2,0,2,50000,50000,0,50000,0,0,0,0,0.00,0.00,0.00,0.00
2017-05-16 14:30:00,2,50000,0,0.00,2,2,0,2,50000,50000,0,50000,0,0,0,0,0.00,0.00,0.00,0.00
2017-05-16 14:40:00,2,50000,0,0.00,2,2,0,2,50000,50000,0,50000,0,0,0,0,0.00,0.00,0.00,0.00
2017-05-16 14:50:00,2,50000,0,0.00,2,2,0,2,50000,50000,0,50000,0,0,0,0,0.00,0.00,0.00,0.00
2017-05-16 15:00:00,2,50000,0,0.00,2,2,0,2,50000,50000,0,50000,0,0,0,0,0.00,0.00,0.00,0.00
2017-05-16 15:10:00,2,50000,0,0.00,2,2,0,2,50000,50000,0,50000,0,0,0,0,0.00,0.00,0.00,0.00
2017-05-16 15:20:00,2,50000,0,0.00,2,2,0,2,50000,50000,0,50000,0,0,0,0,0.00,0.00,0.00,0.00
2017-05-16 15:30:00,2,50000,0,0.00,2,2,0,2,50000,50000,0,50000,0,0,0,0,0.00,0.00,0.00,0.00
2017-05-16 15:40:00,2,49588,0,0.00,2,2,0,2,45879,50000,1236,50000,0,0,0,0,0.00,0.00,0.00,0.00
2017-05-16 15:50:00,2,50000,0,0.00,2,2,0,2,50000,50000,0,50000,0,0,0,0,0.00,0.00,0.00,0.00
2017-05-16 16:00:00,2,50000,0,0.00,2,2,0,2,50000,50000,0,50000,0,0,0,0,0.00,0.00,0.00,0.00
2017-05-16 16:10:00,2,50000,0,0.00,2,2,0,2,50000,50000,0,50000,0,0,0,0,0.00,0.00,0.00,0.00
2017-05-16 16:20:00,2,50000,0,0.00,2,2,0,2,50000,50000,0,50000,0,0,0,0,0.00,0.00,0.00,0.00
2017-05-16 16:30:00,2,50000,0,0.00,2,2,0,2,50000,50000,0,50000,0,0,0,0,0.00,0.00,0.00,0.00
2017-05-16 16:40:00,2,50000,0,0.00,2,2,0,2,50000,50000,0,50000,0,0,0,0,0.00,0.00,0.00,0.00
2017-05-16 16:50:00,2,50000,0,0.00,2,2,0,2,50000,50000,0,50000,0,0,0,0,0.00,0.00,0.00,0.00
2017-05-16 17:00:00,2,50000,0,0.00,2,2,0,2,50000,50000,0,50000,0,0,0,0,0.00,0.00,0.00,0.00
2017-05-16 17:10:00,2,50000,0,0.00,2,2,0,2,50000,50000,0,50000,0,0,0,0,0.00,0.00,0.00,0.00
2017-05-16 17:20:00,2,50000,0,0.00,2,2,0,2,50000,50000,0,50000,0,0,0,0,0.00,0.00,0.00,0.00
2017-05-16 17:30:00,2,50000,0,0.00,2,2,0,2,50000,50000,0,50000,0,0,0,0,0.00,0.00,0.00,0.00
2017-05-16 17:40:00,2,50000,0,0.00,2,2,0,2,50000,50000,0,50000,0,0,0,0,0.00,0.00,0.00,0.00
2017-05-16 17:50:00,2,50000,0,0.00,2,2,0,2,50000,50000,0,50000,0,0,0,0,0.00,0.00,0.00,0.00
2017-05-16 18:00:00,2,50000,0,0.00,2,2,0,2,50000,50000,0,50000,0,0,0,0,0.00,0.00,0.00,0.00
2017-05-16 18:10:00,2,50000,0,0.00,2,2,0,2,50000,50000,0,50000,0,0,0,0,0.00,0.00,0.00,0.00
2017-05-16 18:20:00,2,49688,0,0.00,2,2,0,2,48810,50000,481,50000,0,0,0,0,0.00,0.00,0.00,0.00
2017-05-16 18:30:00,2,50000,0,0.00,2,2,0,2,50000,50000,0,50000,0,0,0,0,0.00,0.00,0.00,0.00
2017-05-16 18:40:00,2,50000,0,0.00,2,2,0,2,50000,50000,0,50000,0,0,0,0,0.00,0.00,0.00,0.00
2017-05-16 18:50:00,2,50000,0,0.00,2,2,0,2,50000,50000,0,50000,0,0,0,0,0.00,0.00,0.00,0.00
2017-05-16 19:00:00,2,49965,0,0.00,2,2,0,2,49648,50000,106,50000,0,0,0,0,0.00,0.00,0.00,0.00
2017-05-16 19:10:00,2,49822,0,0.00,2,2,0,2,48216,50000,535,50000,0,0,0,0,0.00,0.00,0.00,0.00
2017-05-16 19:20:00,2,49973,0,0.00,2,2,0,2,49728,50000,82,50000,0,0,0,0,0.00,0.00,0.00,0.00
2017-05-16 19:30:00,2,49744,0,0.00,2,2,0,2,47445,50000,766,50000,0,0,0,0,0.00,0.00,0.00,0.00
2017-05-16 19:40:00,2,49345,0,0.00,2,2,0,2,44318,50000,1696,50000,0,0,0,0,0.00,0.00,0.00,0.00
2017-05-16 19:50:00,2,49544,0,0.00,2,2,0,2,45442,50000,1367,50000,0,0,0,0,0.00,0.00,0.00,0.00
2017-05-16 20:00:00,2,49587,0,0.00,2,2,0,2,47783,50000,829,50000,0,0,0,0,0.00,0.00,0.00,0.00
2017-05-16 20:10:00,2,49866,0,0.00,2,2,0,2,48657,50000,403,50000,0,0,0,0,0.00,0.00,0.00,0.00
2017-05-16 20:20:00,2,48508,0,0.00,2,2,0,2,43932,50000,2340,50000,0,0,0,0,0.00,0.00,0.00,0.00
2017-05-16 20:30:00,2,49676,0,0.00,2,2,0,2,46755,50000,974,50000,0,0,0,0,0.00,0.00,0.00,0.00
2017-05-16 20:40:00,2,49793,0,0.00,2,2,0,2,48345,50000,492,50000,0,0,0,0,0.00,0.00,0.00,0.00
2017-05-16 20:50:00,2,48834,0,0.00,2,2,0,2,44438,50000,1995,50000,0,0,0,0,0.00,0.00,0.00,0.00
2017-05-16 21:00:00,2,49037,0,0.00,2,2,0,2,45995,50000,1489,50000,0,0,0,0,0.00,0.00,0.00,0.00
2017-05-16 21:10:00,2,45943,0,0.00,2,2,0,2,40291,50000,3222,45725,0,0,0,0,0.00,0.00,0.00,0.00
2017-05-16 21:20:00,2,47994,0,0.00,2,2,0,2,40512,50000,2864,49386,0,0,0,0,0.00,0.00,0.00,0.00
2017-05-16 21:30:00,2,47439,0,0.00,2,2,0,2,43298,50000,2643,48134,0,0,0,0,0.00,0.00,0.00,0.00
2017-05-16 21:40:00,2,41409,0,0.00,2,2,0,2,28696,50000,6824,39939,0,0,0,0,0.00,0.00,0.00,0.00
2017-05-16 21:50:00,2,42598,0,0.00,2,2,0,2,32665,50000,6052,41568,0,0,0,0,0.00,0.00,0.00,0.00
2017-05-16 22:00:00,2,47878,0,0.00,2,2,0,2,39148,50000,3326,50000,0,0,0,0,0.00,0.00,0.00,0.00
2017-05-16 22:10:00,2,45718,0,0.00,2,2,0,2,38302,50000,4109,45710,0,0,0,0,0.00,0.00,0.00,0.00
2017-05-16 22:20:00,2,39048,0,0.00,2,2,0,2,22697,50000,9522,40150,0,0,0,0,0.00,0.00,0.00,0.00
2017-05-16 22:30:00,2,41789,0,0.00,2,2,0,2,32638,50000,5443,41129,0,0,0,0,0.00,0.00,0.00,0.00
2017-05-16 22:40:00,2,42425,0,0.00,2,2,0,2,32783,50000,5352,43250,0,0,0,0,0.00,0.00,0.00,0.00
2017-05-16 22:50:00,2,36888,0,0.00,2,2,0,2,22511,50000,10025,39724,0,0,0,0,0.00,0.00,0.00,0.00
2017-05-16 23:00:00,2,45729,0,0.00,2,2,0,2,36549,50000,4543,47375,0,0,0,0,0.00,0.00,0.00,0.00
2017-05-16 23:10:00,2,40129,0,0.00,2,2,0,2,32067,50000,5470,38004,0,0,0,0,0.00,0.00,0.00,0.00
2017-05-16 23:20:00,2,30287,0,0.00,2,2,0,2,22084,42508,5525,29794,0,0,0,0,0.00,0.00,0.00,0.00
2017-05-16 23:30:00,2,44088,0,0.00,2,2,0,2,29275,50000,7317,48616,0,0,0,0,0.00,0.00,0.00,0.00
2017-05-16 23:40:00,2,42036,0,0.00,2,2,0,2,33067,50000,5191,41824,0,0,0,0,0.00,0.00,0.00,0.00
2017-05-16 23:50:00,2,35810,0,0.00,2,2,0,2,26597,43192,5904,37211,0,0,0,0,0.00,0.00,0.00,0.00
